VOE001 GCTS-LEBB

Flight info

Callsign VOE001
Flight time 2h 40m
Altitude 36000
Route KONBA/N0451F380 UN866 BEXAL DCT ULVOT DCT INLIB DCT ITVIT DCT NSA DCT ABRAT DCT PINOX DCT RIVRO DCT TOSDI DCT ZMR DCT NEA DCT DGO
Aircraft A319/M-SDE3FGHIRWY/LB1

Departure

Time 2026-05-06 09:22
Airport Tenerife Sur Airport (GCTS)

Arrival

Time 2026-05-06 12:03
Airport Bilbao Airport (LEBB)
Time Latitude Longitude Altitude Speed Heading
2026-05-06 08:51 28.04684 -16.57790 208 ft 0 kts 339°
2026-05-06 09:13 28.04675 -16.57786 211 ft 4 kts 339°
2026-05-06 09:13 28.04650 -16.57775 212 ft 4 kts 339°
2026-05-06 09:13 28.04626 -16.57762 205 ft 4 kts 320°
2026-05-06 09:14 28.04611 -16.57740 210 ft 4 kts 278°
2026-05-06 09:14 28.04612 -16.57720 208 ft 0 kts 249°
2026-05-06 09:16 28.04606 -16.57738 210 ft 5 kts 251°
2026-05-06 09:16 28.04588 -16.57792 203 ft 9 kts 248°
2026-05-06 09:16 28.04563 -16.57863 209 ft 10 kts 248°
2026-05-06 09:16 28.04536 -16.57940 202 ft 11 kts 248°
2026-05-06 09:17 28.04508 -16.58022 198 ft 12 kts 250°
2026-05-06 09:17 28.04478 -16.58110 198 ft 12 kts 248°
2026-05-06 09:17 28.04445 -16.58202 207 ft 13 kts 249°
2026-05-06 09:17 28.04413 -16.58299 200 ft 13 kts 250°
2026-05-06 09:18 28.04383 -16.58401 198 ft 14 kts 252°
2026-05-06 09:18 28.04350 -16.58506 195 ft 14 kts 249°
2026-05-06 09:18 28.04292 -16.58573 202 ft 12 kts 174°
2026-05-06 09:18 28.04209 -16.58552 195 ft 12 kts 186°
2026-05-06 09:19 28.04161 -16.58629 194 ft 13 kts 249°
2026-05-06 09:19 28.04130 -16.58726 200 ft 14 kts 250°
2026-05-06 09:19 28.04094 -16.58827 198 ft 14 kts 248°
2026-05-06 09:19 28.04021 -16.58877 193 ft 13 kts 159°
2026-05-06 09:20 28.04003 -16.58862 204 ft 0 kts 139°
2026-05-06 09:20 28.04002 -16.58861 204 ft 2 kts 139°
2026-05-06 09:20 28.03974 -16.58819 199 ft 8 kts 115°
2026-05-06 09:20 28.03951 -16.58762 201 ft 8 kts 129°
2026-05-06 09:21 28.03936 -16.58704 194 ft 8 kts 73°
2026-05-06 09:21 28.03959 -16.58635 195 ft 14 kts 69°
2026-05-06 09:21 28.04089 -16.58266 203 ft 86 kts 68°
2026-05-06 09:21 28.04383 -16.57415 207 ft 142 kts 68°
2026-05-06 09:22 28.04795 -16.56280 576 ft 157 kts 69°
2026-05-06 09:22 28.05203 -16.55143 1171 ft 156 kts 68°
2026-05-06 09:22 28.05599 -16.53999 1845 ft 156 kts 65°
2026-05-06 09:22 28.06016 -16.52793 2324 ft 175 kts 64°
2026-05-06 09:23 28.06489 -16.51431 2729 ft 197 kts 67°
2026-05-06 09:23 28.07020 -16.49901 3113 ft 220 kts 67°
2026-05-06 09:23 28.07610 -16.48200 3538 ft 244 kts 66°
2026-05-06 09:23 28.08251 -16.46353 4224 ft 256 kts 66°
2026-05-06 09:24 28.08902 -16.44459 5090 ft 261 kts 68°
2026-05-06 09:24 28.09544 -16.42516 5931 ft 266 kts 69°
2026-05-06 09:24 28.10183 -16.40533 6779 ft 270 kts 69°
2026-05-06 09:24 28.10831 -16.38510 7565 ft 277 kts 69°
2026-05-06 09:25 28.11492 -16.36440 8342 ft 283 kts 69°
2026-05-06 09:25 28.12167 -16.34331 9176 ft 286 kts 69°
2026-05-06 09:25 28.12854 -16.32193 9973 ft 292 kts 68°
2026-05-06 09:25 28.13562 -16.30002 10654 ft 298 kts 68°
2026-05-06 09:26 28.14545 -16.27892 11082 ft 314 kts 49°
2026-05-06 09:26 28.16281 -16.26319 11321 ft 330 kts 21°
2026-05-06 09:26 28.18539 -16.25604 11531 ft 348 kts
2026-05-06 09:26 28.20986 -16.25092 11847 ft 365 kts
2026-05-06 09:27 28.23513 -16.24562 12462 ft 372 kts
2026-05-06 09:27 28.26074 -16.24014 13158 ft 377 kts
2026-05-06 09:27 28.28661 -16.23422 13852 ft 382 kts
2026-05-06 09:27 28.31261 -16.22711 14450 ft 386 kts 11°
2026-05-06 09:28 28.33873 -16.21920 15042 ft 391 kts 12°
2026-05-06 09:28 28.36509 -16.21085 15640 ft 395 kts 13°
2026-05-06 09:28 28.39168 -16.20238 16240 ft 399 kts 12°
2026-05-06 09:28 28.41854 -16.19397 16819 ft 403 kts 12°
2026-05-06 09:29 28.44572 -16.18564 17411 ft 406 kts 12°
2026-05-06 09:29 28.47319 -16.17737 17998 ft 410 kts 11°
2026-05-06 09:29 28.50097 -16.16910 18547 ft 414 kts 11°
2026-05-06 09:29 28.52896 -16.16076 19063 ft 417 kts 11°
2026-05-06 09:30 28.55716 -16.15232 19570 ft 420 kts 11°
2026-05-06 09:30 28.58559 -16.14377 20103 ft 423 kts 12°
2026-05-06 09:30 28.61406 -16.13520 20608 ft 425 kts 12°
2026-05-06 09:30 28.64272 -16.12658 21109 ft 427 kts 12°
2026-05-06 09:31 28.67154 -16.11789 21592 ft 430 kts 12°
2026-05-06 09:31 28.70056 -16.10911 22067 ft 432 kts 12°
2026-05-06 09:31 28.72937 -16.10037 22527 ft 435 kts 12°
2026-05-06 09:31 28.75868 -16.09149 22975 ft 437 kts 12°
2026-05-06 09:32 28.78859 -16.08244 23417 ft 440 kts 12°
2026-05-06 09:32 28.81791 -16.07356 23817 ft 442 kts 12°
2026-05-06 09:32 28.84775 -16.06455 24173 ft 445 kts 12°
2026-05-06 09:32 28.87775 -16.05554 24546 ft 447 kts 12°
2026-05-06 09:33 28.90788 -16.04648 24905 ft 449 kts 12°
2026-05-06 09:33 28.93820 -16.03734 25153 ft 454 kts 12°
2026-05-06 09:33 28.96903 -16.02801 25277 ft 461 kts 12°
2026-05-06 09:33 29.00028 -16.01853 25397 ft 468 kts 12°
2026-05-06 09:34 29.03200 -16.00887 25525 ft 474 kts 12°
2026-05-06 09:34 29.06404 -15.99912 25645 ft 479 kts 12°
2026-05-06 09:34 29.09639 -15.98924 25824 ft 483 kts 12°
2026-05-06 09:34 29.12893 -15.97931 26093 ft 484 kts 12°
2026-05-06 09:35 29.16151 -15.96938 26445 ft 484 kts 12°
2026-05-06 09:35 29.19398 -15.95948 26839 ft 482 kts 12°
2026-05-06 09:35 29.22636 -15.94960 27288 ft 481 kts 12°
2026-05-06 09:35 29.25866 -15.93977 27732 ft 480 kts 12°
2026-05-06 09:36 29.29088 -15.92998 28124 ft 479 kts 12°
2026-05-06 09:36 29.32306 -15.92019 28532 ft 478 kts 12°
2026-05-06 09:36 29.35516 -15.91042 28929 ft 477 kts 12°
2026-05-06 09:36 29.38722 -15.90065 29336 ft 476 kts 12°
2026-05-06 09:37 29.41879 -15.89100 29745 ft 475 kts 12°
2026-05-06 09:37 29.45072 -15.88122 30165 ft 474 kts 12°
2026-05-06 09:37 29.48257 -15.87145 30491 ft 474 kts 12°
2026-05-06 09:37 29.51443 -15.86166 30833 ft 473 kts 12°
2026-05-06 09:38 29.54617 -15.85190 31184 ft 472 kts 12°
2026-05-06 09:38 29.57790 -15.84216 31542 ft 471 kts 12°
2026-05-06 09:38 29.60960 -15.83242 31900 ft 470 kts 12°
2026-05-06 09:38 29.64117 -15.82271 32262 ft 469 kts 12°
2026-05-06 09:39 29.67270 -15.81299 32629 ft 468 kts 12°
2026-05-06 09:39 29.70415 -15.80329 32989 ft 467 kts 12°
2026-05-06 09:39 29.73551 -15.79362 33354 ft 467 kts 12°
2026-05-06 09:39 29.76684 -15.78399 33720 ft 466 kts 12°
2026-05-06 09:40 29.79813 -15.77439 34036 ft 465 kts 11°
2026-05-06 09:40 29.82932 -15.76482 34390 ft 464 kts 11°
2026-05-06 09:40 29.89169 -15.74562 34999 ft 464 kts 12°
2026-05-06 09:41 29.92294 -15.73597 35296 ft 464 kts 12°
2026-05-06 09:41 29.95413 -15.72630 35576 ft 464 kts 12°
2026-05-06 09:41 29.98529 -15.71659 35827 ft 464 kts 12°
2026-05-06 09:41 30.01652 -15.70685 36044 ft 464 kts 12°
2026-05-06 09:42 30.07895 -15.68743 36081 ft 465 kts 12°
2026-05-06 09:42 30.14145 -15.66794 36086 ft 465 kts 12°
2026-05-06 09:43 30.20393 -15.64844 36086 ft 465 kts 12°
2026-05-06 09:43 30.26652 -15.62899 36091 ft 468 kts 12°
2026-05-06 09:44 30.32944 -15.60918 36111 ft 468 kts 12°
2026-05-06 09:44 30.39191 -15.58951 36110 ft 468 kts 12°
2026-05-06 09:45 30.45469 -15.56988 36105 ft 467 kts 12°
2026-05-06 09:45 30.51739 -15.55018 36096 ft 467 kts 12°
2026-05-06 09:46 30.58008 -15.53036 36097 ft 467 kts 12°
2026-05-06 09:46 30.63223 -15.51393 36096 ft 466 kts 12°
2026-05-06 09:47 30.69479 -15.49414 36099 ft 466 kts 12°
2026-05-06 09:47 30.75738 -15.47446 36095 ft 465 kts 12°
2026-05-06 09:48 30.81987 -15.45474 36091 ft 465 kts 12°
2026-05-06 09:48 30.88233 -15.43493 36112 ft 465 kts 12°
2026-05-06 09:49 30.94461 -15.41515 36124 ft 463 kts 12°
2026-05-06 09:49 31.00671 -15.39545 36121 ft 462 kts 12°
2026-05-06 09:50 31.06859 -15.37576 36119 ft 461 kts 12°
2026-05-06 09:50 31.13006 -15.35622 36111 ft 460 kts 12°
2026-05-06 09:51 31.19176 -15.33660 36131 ft 459 kts 13°
2026-05-06 09:51 31.25317 -15.31689 36129 ft 457 kts 13°
2026-05-06 09:52 31.31287 -15.29131 36123 ft 460 kts 26°
2026-05-06 09:52 31.36678 -15.25060 36118 ft 461 kts 31°
2026-05-06 09:53 31.42026 -15.20903 36112 ft 461 kts 31°
2026-05-06 09:53 31.47375 -15.16753 36121 ft 461 kts 31°
2026-05-06 09:54 31.52721 -15.12611 36110 ft 460 kts 31°
2026-05-06 09:54 31.58058 -15.08461 36104 ft 460 kts 31°
2026-05-06 09:55 31.63392 -15.04300 36110 ft 460 kts 31°
2026-05-06 09:55 31.68717 -15.00134 36107 ft 460 kts 31°
2026-05-06 09:56 31.74052 -14.95963 36124 ft 460 kts 31°
2026-05-06 09:56 31.79350 -14.91822 36115 ft 461 kts 31°
2026-05-06 09:57 31.84683 -14.87639 36110 ft 461 kts 31°
2026-05-06 09:57 31.90013 -14.83447 36107 ft 461 kts 31°
2026-05-06 09:58 31.95349 -14.79249 36105 ft 461 kts 31°
2026-05-06 09:58 32.00688 -14.75047 36108 ft 461 kts 31°
2026-05-06 09:59 32.06025 -14.70847 36120 ft 461 kts 31°
2026-05-06 09:59 32.11358 -14.66636 36116 ft 462 kts 31°
2026-05-06 10:00 32.16694 -14.62407 36110 ft 462 kts 31°
2026-05-06 10:00 32.22030 -14.58175 36113 ft 462 kts 31°
2026-05-06 10:01 32.27365 -14.53946 36120 ft 462 kts 31°
2026-05-06 10:01 32.32707 -14.49718 36132 ft 462 kts 31°
2026-05-06 10:02 32.38054 -14.45483 36123 ft 462 kts 31°
2026-05-06 10:02 32.43392 -14.41235 36121 ft 462 kts 31°
2026-05-06 10:03 32.48692 -14.36985 36121 ft 462 kts 31°
2026-05-06 10:03 32.54023 -14.32716 36115 ft 462 kts 31°
2026-05-06 10:04 32.59350 -14.28449 36117 ft 462 kts 31°
2026-05-06 10:04 32.64691 -14.24182 36117 ft 462 kts 31°
2026-05-06 10:05 32.70019 -14.19905 36128 ft 463 kts 31°
2026-05-06 10:05 32.75349 -14.15623 36121 ft 463 kts 31°
2026-05-06 10:06 32.80689 -14.11325 36119 ft 463 kts 31°
2026-05-06 10:06 32.86021 -14.07025 36114 ft 463 kts 31°
2026-05-06 10:07 32.91361 -14.02727 36126 ft 463 kts 31°
2026-05-06 10:07 32.96694 -13.98422 36124 ft 463 kts 31°
2026-05-06 10:08 33.02023 -13.94106 36124 ft 463 kts 31°
2026-05-06 10:08 33.07317 -13.89825 36125 ft 463 kts 31°
2026-05-06 10:09 33.12635 -13.85498 36134 ft 463 kts 31°
2026-05-06 10:09 33.17960 -13.81151 36142 ft 463 kts 31°
2026-05-06 10:10 33.23273 -13.76792 36131 ft 463 kts 31°
2026-05-06 10:10 33.28584 -13.72427 36130 ft 463 kts 31°
2026-05-06 10:11 33.33898 -13.68067 36121 ft 463 kts 31°
2026-05-06 10:11 33.39213 -13.63689 36121 ft 463 kts 31°
2026-05-06 10:12 33.44518 -13.59317 36120 ft 463 kts 31°
2026-05-06 10:12 33.49825 -13.54940 36142 ft 463 kts 31°
2026-05-06 10:13 33.55123 -13.50556 36138 ft 462 kts 31°
2026-05-06 10:13 33.60414 -13.46159 36126 ft 463 kts 32°
2026-05-06 10:14 33.65710 -13.41753 36117 ft 463 kts 32°
2026-05-06 10:14 33.70978 -13.37382 36113 ft 463 kts 32°
2026-05-06 10:15 33.76280 -13.32974 36136 ft 463 kts 32°
2026-05-06 10:15 33.81582 -13.28565 36139 ft 463 kts 32°
2026-05-06 10:16 33.86871 -13.24157 36132 ft 462 kts 32°
2026-05-06 10:16 33.92150 -13.19735 36126 ft 462 kts 32°
2026-05-06 10:17 33.97431 -13.15319 36130 ft 462 kts 32°
2026-05-06 10:17 34.02704 -13.10893 36116 ft 463 kts 32°
2026-05-06 10:18 34.07983 -13.06453 36131 ft 463 kts 32°
2026-05-06 10:18 34.13266 -13.01998 36121 ft 463 kts 32°
2026-05-06 10:19 34.18549 -12.97549 36118 ft 463 kts 32°
2026-05-06 10:19 34.23838 -12.93101 36116 ft 463 kts 32°
2026-05-06 10:20 34.29120 -12.88648 36114 ft 463 kts 32°
2026-05-06 10:20 34.34416 -12.84214 36125 ft 462 kts 32°
2026-05-06 10:21 34.39676 -12.79811 36130 ft 462 kts 32°
2026-05-06 10:21 34.44955 -12.75374 36125 ft 462 kts 32°
2026-05-06 10:22 34.50250 -12.70920 36105 ft 464 kts 32°
2026-05-06 10:22 34.55549 -12.66447 36101 ft 465 kts 32°
2026-05-06 10:23 34.60862 -12.61962 36119 ft 465 kts 32°
2026-05-06 10:23 34.66170 -12.57483 36123 ft 464 kts 32°
2026-05-06 10:24 34.71465 -12.52991 36123 ft 464 kts 32°
2026-05-06 10:24 34.76727 -12.48519 36124 ft 464 kts 32°
2026-05-06 10:25 34.82028 -12.44030 36121 ft 464 kts 32°
2026-05-06 10:25 34.87322 -12.39532 36141 ft 464 kts 32°
2026-05-06 10:26 34.92619 -12.35020 36121 ft 465 kts 32°
2026-05-06 10:26 34.97916 -12.30494 36108 ft 465 kts 32°
2026-05-06 10:27 35.03211 -12.25961 36108 ft 465 kts 32°
2026-05-06 10:27 35.08481 -12.21452 36108 ft 465 kts 32°
2026-05-06 10:28 35.13780 -12.16909 36103 ft 466 kts 32°
2026-05-06 10:28 35.19076 -12.12361 36126 ft 465 kts 32°
2026-05-06 10:29 35.24363 -12.07814 36125 ft 464 kts 32°
2026-05-06 10:29 35.29652 -12.03264 36122 ft 464 kts 32°
2026-05-06 10:30 35.34944 -11.98691 36096 ft 466 kts 32°
2026-05-06 10:30 35.40244 -11.94092 36092 ft 467 kts 32°
2026-05-06 10:31 35.45551 -11.89494 36095 ft 468 kts 32°
2026-05-06 10:31 35.50869 -11.84890 36096 ft 468 kts 32°
2026-05-06 10:32 35.56154 -11.80304 36102 ft 468 kts 32°
2026-05-06 10:32 35.61503 -11.75644 36100 ft 469 kts 33°
2026-05-06 10:33 35.66782 -11.71031 36095 ft 469 kts 32°
2026-05-06 10:33 35.72095 -11.66392 36113 ft 468 kts 32°
2026-05-06 10:34 35.77399 -11.61748 36120 ft 467 kts 32°
2026-05-06 10:34 35.82690 -11.57108 36112 ft 467 kts 32°
2026-05-06 10:35 35.87987 -11.52468 36111 ft 467 kts 32°
2026-05-06 10:35 35.93271 -11.47822 36109 ft 466 kts 32°
2026-05-06 10:36 35.97661 -11.43957 36121 ft 466 kts 32°
2026-05-06 10:36 36.02975 -11.39374 36122 ft 465 kts 31°
2026-05-06 10:37 36.08339 -11.34809 36114 ft 465 kts 31°
2026-05-06 10:37 36.13624 -11.30281 36114 ft 465 kts 32°
2026-05-06 10:38 36.18940 -11.25688 36097 ft 466 kts 32°
2026-05-06 10:38 36.24258 -11.21100 36115 ft 466 kts 32°
2026-05-06 10:39 36.29581 -11.16503 36116 ft 466 kts 32°
2026-05-06 10:39 36.34898 -11.11900 36109 ft 466 kts 32°
2026-05-06 10:40 36.40204 -11.07287 36106 ft 465 kts 32°
2026-05-06 10:40 36.45504 -11.02680 36105 ft 465 kts 32°
2026-05-06 10:41 36.50808 -10.98060 36113 ft 465 kts 32°
2026-05-06 10:41 36.56077 -10.93472 36127 ft 465 kts 32°
2026-05-06 10:42 36.61376 -10.88842 36107 ft 466 kts 32°
2026-05-06 10:42 36.66687 -10.84190 36093 ft 466 kts 32°
2026-05-06 10:43 36.71992 -10.79529 36094 ft 467 kts 32°
2026-05-06 10:44 36.79953 -10.72532 36107 ft 466 kts 32°
2026-05-06 10:44 36.85261 -10.67872 36104 ft 466 kts 32°
2026-05-06 10:45 36.90560 -10.63197 36096 ft 466 kts 32°
2026-05-06 10:45 36.95850 -10.58520 36096 ft 466 kts 32°
2026-05-06 10:46 37.01142 -10.53839 36104 ft 466 kts 32°
2026-05-06 10:46 37.06440 -10.49138 36087 ft 467 kts 32°
2026-05-06 10:47 37.11750 -10.44429 36085 ft 468 kts 32°
2026-05-06 10:47 37.17059 -10.39717 36075 ft 468 kts 32°
2026-05-06 10:48 37.22369 -10.34976 36077 ft 468 kts 32°
2026-05-06 10:48 37.27643 -10.30259 36093 ft 468 kts 32°
2026-05-06 10:49 37.32951 -10.25510 36088 ft 468 kts 32°
2026-05-06 10:49 37.38254 -10.20758 36088 ft 468 kts 32°
2026-05-06 10:50 37.43572 -10.15996 36079 ft 469 kts 32°
2026-05-06 10:50 37.48893 -10.11216 36071 ft 471 kts 32°
2026-05-06 10:51 37.54218 -10.06409 36084 ft 471 kts 32°
2026-05-06 10:51 37.59548 -10.01595 36085 ft 471 kts 32°
2026-05-06 10:52 37.64824 -9.96683 36079 ft 472 kts 35°
2026-05-06 10:52 37.69867 -9.91357 36079 ft 473 kts 38°
2026-05-06 10:53 37.74824 -9.85882 36084 ft 473 kts 38°
2026-05-06 10:53 37.79819 -9.80464 36088 ft 473 kts 37°
2026-05-06 10:54 37.84860 -9.75099 36064 ft 474 kts 37°
2026-05-06 10:54 37.89924 -9.69728 36059 ft 475 kts 37°
2026-05-06 10:55 37.94974 -9.64326 36050 ft 476 kts 37°
2026-05-06 10:55 38.00022 -9.58900 36051 ft 476 kts 37°
2026-05-06 10:56 38.05063 -9.53469 36051 ft 476 kts 37°
2026-05-06 10:56 38.10108 -9.48030 36050 ft 476 kts 37°
2026-05-06 10:57 38.15132 -9.42631 36042 ft 477 kts 38°
2026-05-06 10:57 38.20191 -9.37160 36036 ft 478 kts 38°
2026-05-06 10:58 38.25258 -9.31663 36037 ft 478 kts 38°
2026-05-06 10:58 38.30319 -9.26165 36053 ft 479 kts 38°
2026-05-06 10:59 38.35400 -9.20682 36043 ft 479 kts 37°
2026-05-06 10:59 38.40542 -9.15288 36044 ft 479 kts 36°
2026-05-06 11:00 38.45698 -9.09920 36042 ft 479 kts 37°
2026-05-06 11:00 38.50842 -9.04518 36024 ft 479 kts 37°
2026-05-06 11:01 38.55982 -8.99075 36033 ft 480 kts 37°
2026-05-06 11:01 38.61119 -8.93614 36028 ft 480 kts 37°
2026-05-06 11:02 38.66255 -8.88156 36027 ft 480 kts 37°
2026-05-06 11:02 38.71400 -8.82697 36029 ft 480 kts 37°
2026-05-06 11:03 38.76537 -8.77230 36027 ft 480 kts 37°
2026-05-06 11:03 38.81673 -8.71739 36040 ft 480 kts 37°
2026-05-06 11:04 38.86801 -8.66243 36026 ft 481 kts 37°
2026-05-06 11:04 38.91949 -8.60743 36022 ft 481 kts 37°
2026-05-06 11:05 38.97064 -8.55269 36023 ft 482 kts 37°
2026-05-06 11:05 39.02218 -8.49761 36021 ft 482 kts 37°
2026-05-06 11:06 39.07379 -8.44275 36040 ft 481 kts 37°
2026-05-06 11:06 39.12543 -8.38782 36035 ft 481 kts 37°
2026-05-06 11:07 39.17693 -8.33278 36017 ft 481 kts 37°
2026-05-06 11:07 39.22839 -8.27762 36008 ft 481 kts 37°
2026-05-06 11:08 39.27985 -8.22236 36007 ft 481 kts 37°
2026-05-06 11:08 39.33130 -8.16718 36011 ft 481 kts 37°
2026-05-06 11:09 39.38274 -8.11169 36011 ft 481 kts 38°
2026-05-06 11:09 39.43405 -8.05615 36011 ft 481 kts 38°
2026-05-06 11:10 39.48544 -8.00052 36008 ft 481 kts 38°
2026-05-06 11:10 39.53677 -7.94487 36031 ft 481 kts 38°
2026-05-06 11:10 39.56244 -7.91703 36217 ft 481 kts 38°
2026-05-06 11:11 39.58830 -7.88951 36530 ft 480 kts 36°
2026-05-06 11:11 39.61454 -7.86266 36801 ft 480 kts 35°
2026-05-06 11:11 39.64100 -7.83626 37062 ft 480 kts 35°
2026-05-06 11:11 39.66751 -7.81005 37311 ft 480 kts 35°
2026-05-06 11:12 39.69405 -7.78373 37558 ft 480 kts 35°
2026-05-06 11:12 39.72049 -7.75729 37791 ft 480 kts 35°
2026-05-06 11:12 39.74688 -7.73067 37981 ft 481 kts 35°
2026-05-06 11:13 39.79957 -7.67698 38003 ft 481 kts 36°
2026-05-06 11:13 39.85164 -7.62207 38004 ft 481 kts 38°
2026-05-06 11:14 39.90166 -7.56398 37998 ft 482 kts 40°
2026-05-06 11:14 39.95117 -7.50489 38002 ft 483 kts 40°
2026-05-06 11:15 40.00111 -7.44637 38002 ft 483 kts 39°
2026-05-06 11:15 40.05137 -7.38824 38018 ft 483 kts 39°
2026-05-06 11:16 40.10132 -7.33042 38020 ft 483 kts 39°
2026-05-06 11:16 40.15139 -7.27201 38010 ft 483 kts 39°
2026-05-06 11:17 40.20153 -7.21339 38008 ft 482 kts 39°
2026-05-06 11:17 40.25165 -7.15484 38004 ft 483 kts 39°
2026-05-06 11:18 40.30171 -7.09613 38020 ft 483 kts 39°
2026-05-06 11:18 40.35193 -7.03786 38019 ft 482 kts 39°
2026-05-06 11:19 40.40224 -6.97977 38013 ft 482 kts 39°
2026-05-06 11:19 40.44403 -6.93140 38013 ft 482 kts 39°
2026-05-06 11:20 40.50266 -6.86318 38011 ft 482 kts 39°
2026-05-06 11:20 40.55242 -6.80514 38014 ft 482 kts 39°
2026-05-06 11:21 40.60251 -6.74652 38008 ft 482 kts 39°
2026-05-06 11:21 40.64448 -6.69738 38005 ft 482 kts 39°
2026-05-06 11:22 40.69462 -6.63863 37999 ft 482 kts 39°
2026-05-06 11:22 40.74437 -6.58017 38012 ft 482 kts 39°
2026-05-06 11:23 40.79437 -6.52130 38000 ft 482 kts 39°
2026-05-06 11:23 40.84437 -6.46231 38014 ft 482 kts 39°
2026-05-06 11:24 40.89432 -6.40320 38004 ft 482 kts 39°
2026-05-06 11:24 40.94424 -6.34397 37998 ft 482 kts 39°
2026-05-06 11:25 40.99418 -6.28469 38016 ft 482 kts 39°
2026-05-06 11:25 41.04410 -6.22539 38004 ft 482 kts 39°
2026-05-06 11:26 41.09388 -6.16592 38016 ft 482 kts 39°
2026-05-06 11:26 41.14363 -6.10638 38012 ft 482 kts 39°
2026-05-06 11:27 41.19341 -6.04667 38032 ft 482 kts 39°
2026-05-06 11:27 41.24323 -5.98697 38021 ft 482 kts 39°
2026-05-06 11:28 41.29298 -5.92720 38024 ft 482 kts 40°
2026-05-06 11:28 41.34263 -5.86718 38021 ft 482 kts 40°
2026-05-06 11:29 41.39223 -5.80709 38026 ft 482 kts 40°
2026-05-06 11:29 41.44159 -5.74729 38034 ft 482 kts 40°
2026-05-06 11:30 41.49123 -5.68715 38033 ft 482 kts 40°
2026-05-06 11:30 41.53480 -5.61903 38027 ft 486 kts 57°
2026-05-06 11:31 41.56424 -5.53753 38029 ft 488 kts 65°
2026-05-06 11:31 41.59178 -5.45460 38025 ft 488 kts 65°
2026-05-06 11:32 41.61931 -5.37163 38017 ft 488 kts 65°
2026-05-06 11:32 41.64677 -5.28859 38019 ft 489 kts 65°
2026-05-06 11:33 41.67406 -5.20591 38041 ft 489 kts 65°
2026-05-06 11:33 41.70143 -5.12264 38040 ft 489 kts 65°
2026-05-06 11:34 41.72876 -5.03916 38038 ft 489 kts 65°
2026-05-06 11:34 41.75599 -4.95558 38042 ft 490 kts 65°
2026-05-06 11:35 41.78321 -4.87196 38040 ft 490 kts 65°
2026-05-06 11:35 41.81039 -4.78809 38038 ft 491 kts 65°
2026-05-06 11:36 41.83755 -4.70413 38035 ft 491 kts 65°
2026-05-06 11:36 41.86471 -4.62005 38027 ft 491 kts 65°
2026-05-06 11:37 41.89182 -4.53579 38026 ft 492 kts 65°
2026-05-06 11:37 41.91879 -4.45140 38037 ft 492 kts 65°
2026-05-06 11:38 41.94570 -4.36698 38035 ft 492 kts 65°
2026-05-06 11:38 41.97262 -4.28250 38032 ft 491 kts 65°
2026-05-06 11:39 41.99950 -4.19807 38035 ft 491 kts 65°
2026-05-06 11:39 42.02608 -4.11412 38027 ft 491 kts 65°
2026-05-06 11:40 42.05418 -4.03039 38026 ft 491 kts 63°
2026-05-06 11:40 42.08401 -3.94782 38025 ft 490 kts 62°
2026-05-06 11:41 42.11381 -3.86524 38027 ft 490 kts 63°
2026-05-06 11:41 42.14298 -3.78217 38039 ft 490 kts 63°
2026-05-06 11:42 42.17187 -3.69890 38025 ft 491 kts 63°
2026-05-06 11:42 42.20088 -3.61555 38041 ft 491 kts 63°
2026-05-06 11:43 42.22989 -3.53222 38049 ft 491 kts 63°
2026-05-06 11:43 42.25879 -3.44875 38039 ft 491 kts 63°
2026-05-06 11:44 42.30205 -3.32347 38018 ft 491 kts 63°
2026-05-06 11:44 42.31648 -3.28156 37607 ft 495 kts 63°
2026-05-06 11:44 42.33108 -3.23913 36655 ft 500 kts 63°
2026-05-06 11:45 42.34570 -3.19662 36104 ft 496 kts 63°
2026-05-06 11:45 42.36015 -3.15447 35508 ft 492 kts 63°
2026-05-06 11:45 42.37448 -3.11252 34883 ft 490 kts 63°
2026-05-06 11:45 42.38865 -3.07088 34095 ft 486 kts 63°
2026-05-06 11:46 42.40278 -3.02935 33072 ft 485 kts 63°
2026-05-06 11:46 42.41681 -2.98801 32075 ft 482 kts 63°
2026-05-06 11:46 42.43055 -2.94745 31105 ft 478 kts 63°
2026-05-06 11:46 42.44616 -2.90751 30125 ft 471 kts 56°
2026-05-06 11:47 42.46481 -2.87218 28906 ft 465 kts 49°
2026-05-06 11:47 42.48684 -2.84021 27492 ft 463 kts 41°
2026-05-06 11:47 42.51096 -2.81125 25963 ft 464 kts 39°
2026-05-06 11:47 42.53531 -2.78220 24376 ft 467 kts 40°
2026-05-06 11:48 42.55970 -2.75296 23094 ft 469 kts 40°
2026-05-06 11:48 42.58385 -2.72382 22391 ft 461 kts 40°
2026-05-06 11:48 42.60770 -2.69499 21723 ft 456 kts 40°
2026-05-06 11:48 42.63126 -2.66644 21075 ft 452 kts 40°
2026-05-06 11:49 42.65460 -2.63814 20436 ft 449 kts 40°
2026-05-06 11:49 42.67784 -2.60992 19808 ft 445 kts 39°
2026-05-06 11:49 42.70085 -2.58196 19197 ft 442 kts 40°
2026-05-06 11:49 42.72368 -2.55421 18591 ft 439 kts 40°
2026-05-06 11:50 42.74636 -2.52662 17947 ft 436 kts 39°
2026-05-06 11:50 42.76883 -2.49925 17273 ft 430 kts 40°
2026-05-06 11:50 42.79092 -2.47230 16615 ft 422 kts 40°
2026-05-06 11:50 42.81259 -2.44586 15972 ft 416 kts 40°
2026-05-06 11:51 42.83405 -2.41968 15340 ft 411 kts 40°
2026-05-06 11:51 42.85526 -2.39377 14723 ft 407 kts 40°
2026-05-06 11:51 42.87628 -2.36807 14108 ft 404 kts 40°
2026-05-06 11:51 42.89680 -2.34295 13500 ft 400 kts 40°
2026-05-06 11:52 42.91739 -2.31768 12823 ft 396 kts 39°
2026-05-06 11:52 42.93778 -2.29266 12171 ft 391 kts 40°
2026-05-06 11:52 42.95898 -2.27006 11553 ft 381 kts 26°
2026-05-06 11:52 42.98346 -2.26057 11077 ft 358 kts 360°
2026-05-06 11:53 43.00700 -2.26655 10625 ft 338 kts 334°
2026-05-06 11:53 43.02564 -2.28482 10164 ft 324 kts 316°
2026-05-06 11:53 43.04084 -2.30691 9677 ft 313 kts 310°
2026-05-06 11:53 43.05439 -2.32951 9224 ft 303 kts 309°
2026-05-06 11:54 43.06748 -2.35153 8780 ft 293 kts 309°
2026-05-06 11:54 43.08049 -2.37253 8339 ft 285 kts 311°
2026-05-06 11:54 43.09352 -2.39261 7884 ft 280 kts 312°
2026-05-06 11:54 43.10659 -2.41204 7424 ft 275 kts 313°
2026-05-06 11:55 43.11960 -2.43094 6974 ft 271 kts 313°
2026-05-06 11:55 43.13121 -2.45085 6530 ft 266 kts 301°
2026-05-06 11:55 43.13971 -2.47309 6083 ft 261 kts 296°
2026-05-06 11:55 43.14760 -2.49518 5646 ft 256 kts 296°
2026-05-06 11:56 43.15562 -2.51692 5093 ft 257 kts 297°
2026-05-06 11:56 43.16356 -2.53824 4707 ft 250 kts 297°
2026-05-06 11:56 43.17137 -2.55921 4475 ft 237 kts 297°
2026-05-06 11:56 43.17860 -2.57870 4406 ft 221 kts 297°
2026-05-06 11:57 43.18520 -2.59646 4406 ft 202 kts 297°
2026-05-06 11:57 43.19132 -2.61296 4402 ft 188 kts 298°
2026-05-06 11:57 43.19723 -2.62891 4409 ft 188 kts 297°
2026-05-06 11:57 43.20314 -2.64487 4415 ft 186 kts 296°
2026-05-06 11:58 43.20885 -2.66028 4419 ft 178 kts 296°
2026-05-06 11:58 43.21437 -2.67519 4241 ft 174 kts 297°
2026-05-06 11:58 43.21987 -2.69007 4018 ft 175 kts 297°
2026-05-06 11:58 43.22537 -2.70494 3760 ft 175 kts 296°
2026-05-06 11:59 43.23083 -2.71972 3501 ft 173 kts 296°
2026-05-06 11:59 43.23623 -2.73434 3243 ft 172 kts 297°
2026-05-06 11:59 43.24161 -2.74891 2972 ft 170 kts 296°
2026-05-06 11:59 43.24694 -2.76337 2715 ft 170 kts 297°
2026-05-06 12:00 43.25228 -2.77785 2460 ft 170 kts 297°
2026-05-06 12:00 43.25762 -2.79234 2187 ft 170 kts 297°
2026-05-06 12:00 43.26288 -2.80662 1921 ft 163 kts 297°
2026-05-06 12:00 43.26785 -2.82012 1662 ft 154 kts 298°
2026-05-06 12:01 43.27252 -2.83285 1427 ft 141 kts 297°
2026-05-06 12:01 43.27661 -2.84441 1192 ft 128 kts 297°
2026-05-06 12:01 43.28068 -2.85516 1020 ft 125 kts 300°
2026-05-06 12:01 43.28473 -2.86587 836 ft 125 kts 298°
2026-05-06 12:02 43.28844 -2.87641 644 ft 124 kts 297°
2026-05-06 12:02 43.29234 -2.88694 377 ft 124 kts 299°
2026-05-06 12:02 43.29625 -2.89733 200 ft 122 kts 298°
2026-05-06 12:02 43.29988 -2.90722 129 ft 103 kts 297°
2026-05-06 12:03 43.30223 -2.91370 126 ft 46 kts 295°
2026-05-06 12:03 43.30330 -2.91674 126 ft 28 kts 295°
2026-05-06 12:03 43.30420 -2.91864 127 ft 22 kts 310°
2026-05-06 12:03 43.30530 -2.91990 127 ft 12 kts 325°
2026-05-06 12:04 43.30600 -2.92038 126 ft 10 kts
2026-05-06 12:04 43.30626 -2.91959 128 ft 11 kts 110°
2026-05-06 12:04 43.30591 -2.91860 125 ft 12 kts 116°
2026-05-06 12:04 43.30553 -2.91756 126 ft 13 kts 116°
2026-05-06 12:05 43.30512 -2.91645 127 ft 13 kts 116°
2026-05-06 12:05 43.30469 -2.91528 127 ft 14 kts 116°
2026-05-06 12:05 43.30424 -2.91406 127 ft 15 kts 116°
2026-05-06 12:05 43.30377 -2.91280 128 ft 15 kts 118°
2026-05-06 12:06 43.30327 -2.91149 127 ft 15 kts 117°
2026-05-06 12:06 43.30307 -2.91069 124 ft 13 kts 90°
2026-05-06 12:06 43.30369 -2.90993 126 ft 12 kts 24°
2026-05-06 12:06 43.30407 -2.90898 127 ft 13 kts 87°
2026-05-06 12:07 43.30407 -2.90809 127 ft 5 kts 94°
2026-05-06 12:07 43.30407 -2.90806 127 ft 0 kts 94°
2026-05-06 12:08 43.30409 -2.90783 127 ft 4 kts 72°
2026-05-06 12:08 43.30436 -2.90758 127 ft 5 kts 27°
2026-05-06 12:08 43.30461 -2.90740 127 ft 0 kts 27°